Location: Rottenacker
(48.2350°N, 9.6886°E)
Time: 14:49:00
(UTC+02:00)

OTV 5 (USA 277) - Pass Details

Date: 22 April 2018
Orbit: 308 x 326 km, 54.5° (Epoch: 06 May)

Event Time Altitude Azimuth Distance (km) Brightness Sun altitude
Rises 21:04:21 0° 249° (WSW) 2,062 ? -7.3°
Reaches altitude 10° 21:06:21 10° 254° (WSW) 1,229 ? -7.6°
Maximum altitude 21:09:02 55° 334° (NNW) 390 ? -8.0°
Drops below altitude 10° 21:11:43 10° 54° (NE) 1,226 ? -8.4°
Sets 21:13:42 0° 59° (ENE) 2,055 ? -8.7°
